Time,TemperatureF,DewpointF,PressureIn,WindDirection,WindDirectionDegrees,WindSpeedMPH,WindSpeedGustMPH,Humidity,HourlyPrecipIn,Conditions,Clouds,dailyrainin,SolarRadiationWatts/m^2,SoftwareType,DateUTC
2013-05-07 00:03:00,57.3,53.0,29.94,NW,305,4.0,5.0,85,0.00,,,0.00,0,weatherlink.com 1.10,2013-05-07 07:03:00,
2013-05-07 00:18:00,57.7,53.0,29.95,WNW,282,1.0,7.0,84,0.00,,,0.00,0,weatherlink.com 1.10,2013-05-07 07:18:00,
2013-05-07 00:33:00,57.8,53.0,29.95,WNW,292,2.0,7.0,83,0.00,,,0.00,0,weatherlink.com 1.10,2013-05-07 07:33:00,
2013-05-07 00:48:00,57.8,53.0,29.95,WNW,288,1.0,5.0,83,0.00,,,0.00,0,weatherlink.com 1.10,2013-05-07 07:48:00,
2013-05-07 01:03:00,57.7,53.0,29.95,WNW,288,0.0,3.0,83,0.00,,,0.00,0,weatherlink.com 1.10,2013-05-07 08:03:00,
2013-05-07 01:18:00,57.4,53.0,29.95,WNW,288,0.0,4.0,84,0.00,,,0.00,0,weatherlink.com 1.10,2013-05-07 08:18:00,
2013-05-07 01:33:00,57.2,52.0,29.94,NW,309,2.0,5.0,84,0.00,,,0.00,0,weatherlink.com 1.10,2013-05-07 08:33:00,
2013-05-07 01:49:00,57.3,52.0,29.95,West,275,4.0,6.0,83,0.00,,,0.00,0,weatherlink.com 1.10,2013-05-07 08:49:00,
2013-05-07 02:04:00,57.4,52.0,29.94,NW,324,3.0,6.0,83,0.00,,,0.00,0,weatherlink.com 1.10,2013-05-07 09:04:00,
2013-05-07 02:19:00,57.6,52.0,29.94,West,278,3.0,7.0,82,0.00,,,0.00,0,weatherlink.com 1.10,2013-05-07 09:19:00,
2013-05-07 02:34:00,57.7,52.0,29.95,West,281,3.0,6.0,82,0.00,,,0.00,0,weatherlink.com 1.10,2013-05-07 09:34:00,
2013-05-07 02:49:00,57.7,52.0,29.95,WNW,295,5.0,6.0,82,0.00,,,0.00,0,weatherlink.com 1.10,2013-05-07 09:49:00,
2013-05-07 03:04:00,57.7,52.0,29.95,West,279,1.0,7.0,82,0.00,,,0.00,0,weatherlink.com 1.10,2013-05-07 10:04:00,
2013-05-07 03:19:00,57.7,52.0,29.95,NW,308,2.0,6.0,82,0.00,,,0.00,0,weatherlink.com 1.10,2013-05-07 10:19:00,
2013-05-07 03:34:00,57.6,52.0,29.95,West,277,2.0,6.0,82,0.00,,,0.00,0,weatherlink.com 1.10,2013-05-07 10:34:00,
2013-05-07 03:49:00,57.5,52.0,29.95,West,279,1.0,7.0,82,0.00,,,0.00,0,weatherlink.com 1.10,2013-05-07 10:49:00,
2013-05-07 04:04:00,57.5,52.0,29.95,WNW,287,1.0,7.0,81,0.00,,,0.00,0,weatherlink.com 1.10,2013-05-07 11:04:00,
2013-05-07 04:19:00,57.7,52.0,29.95,WNW,288,3.0,9.0,81,0.00,,,0.00,0,weatherlink.com 1.10,2013-05-07 11:19:00,
2013-05-07 04:34:00,57.5,52.0,29.95,NW,311,5.0,6.0,82,0.00,,,0.00,0,weatherlink.com 1.10,2013-05-07 11:34:00,
2013-05-07 04:49:00,57.3,52.0,29.95,WNW,290,2.0,7.0,82,0.00,,,0.00,0,weatherlink.com 1.10,2013-05-07 11:49:00,
2013-05-07 05:04:00,57.3,52.0,29.95,WNW,282,5.0,8.0,82,0.00,,,0.00,0,weatherlink.com 1.10,2013-05-07 12:04:00,
2013-05-07 05:19:00,57.5,52.0,29.95,West,272,3.0,7.0,81,0.00,,,0.00,0,weatherlink.com 1.10,2013-05-07 12:19:00,
2013-05-07 05:34:00,57.6,52.0,29.95,West,274,3.0,7.0,81,0.00,,,0.00,0,weatherlink.com 1.10,2013-05-07 12:34:00,
2013-05-07 05:49:00,57.7,52.0,29.96,West,265,0.0,6.0,82,0.00,,,0.00,0,weatherlink.com 1.10,2013-05-07 12:49:00,
2013-05-07 06:04:00,57.8,52.0,29.96,WNW,283,2.0,7.0,81,0.00,,,0.00,0,weatherlink.com 1.10,2013-05-07 13:04:00,
2013-05-07 06:19:00,57.8,52.0,29.97,West,281,3.0,9.0,80,0.00,,,0.00,0,weatherlink.com 1.10,2013-05-07 13:19:00,
2013-05-07 06:34:00,58.0,52.0,29.97,WNW,302,3.0,8.0,81,0.00,,,0.00,0,weatherlink.com 1.10,2013-05-07 13:34:00,
2013-05-07 06:49:00,57.9,52.0,29.97,NNW,341,1.0,10.0,81,0.00,,,0.00,12,weatherlink.com 1.10,2013-05-07 13:49:00,
2013-05-07 07:04:00,58.0,53.0,29.97,NW,325,6.0,8.0,82,0.00,,,0.00,53,weatherlink.com 1.10,2013-05-07 14:04:00,
2013-05-07 07:19:00,58.2,52.0,29.98,NNW,329,3.0,10.0,81,0.00,,,0.00,42,weatherlink.com 1.10,2013-05-07 14:19:00,
2013-05-07 07:34:00,58.3,53.0,29.98,WNW,289,2.0,9.0,81,0.00,,,0.00,58,weatherlink.com 1.10,2013-05-07 14:34:00,
2013-05-07 07:49:00,58.7,53.0,29.98,WNW,283,4.0,9.0,82,0.00,,,0.00,83,weatherlink.com 1.10,2013-05-07 14:49:00,
2013-05-07 08:04:00,59.2,54.0,29.98,WNW,286,3.0,7.0,82,0.00,,,0.00,107,weatherlink.com 1.10,2013-05-07 15:04:00,
2013-05-07 08:19:00,60.0,54.0,29.99,NNW,343,4.0,11.0,81,0.00,,,0.00,174,weatherlink.com 1.10,2013-05-07 15:19:00,
2013-05-07 08:34:00,60.9,55.0,29.99,WNW,284,6.0,8.0,81,0.00,,,0.00,204,weatherlink.com 1.10,2013-05-07 15:34:00,
2013-05-07 08:49:00,61.8,55.0,30.00,WNW,302,5.0,13.0,78,0.00,,,0.00,192,weatherlink.com 1.10,2013-05-07 15:49:00,
2013-05-07 09:04:00,62.2,55.0,30.00,NW,316,4.0,11.0,78,0.00,,,0.00,267,weatherlink.com 1.10,2013-05-07 16:04:00,
2013-05-07 09:19:00,62.7,55.0,30.00,WSW,258,9.0,10.0,76,0.00,,,0.00,255,weatherlink.com 1.10,2013-05-07 16:19:00,
2013-05-07 09:34:00,63.2,54.0,30.00,WNW,296,9.0,11.0,73,0.00,,,0.00,218,weatherlink.com 1.10,2013-05-07 16:34:00,
2013-05-07 09:49:00,63.3,54.0,30.00,WNW,284,5.0,14.0,72,0.00,,,0.00,237,weatherlink.com 1.10,2013-05-07 16:49:00,
2013-05-07 10:04:00,63.8,55.0,30.00,NW,321,3.0,9.0,74,0.00,,,0.00,258,weatherlink.com 1.10,2013-05-07 17:04:00,
2013-05-07 10:19:00,64.4,54.0,30.00,NNW,333,3.0,10.0,70,0.00,,,0.00,322,weatherlink.com 1.10,2013-05-07 17:19:00,
2013-05-07 10:35:00,65.0,55.0,30.00,West,277,2.0,12.0,69,0.00,,,0.00,376,weatherlink.com 1.10,2013-05-07 17:35:00,
2013-05-07 10:50:00,65.8,55.0,30.01,NW,307,6.0,12.0,69,0.00,,,0.00,325,weatherlink.com 1.10,2013-05-07 17:50:00,
2013-05-07 11:05:00,65.5,55.0,30.01,West,274,2.0,12.0,70,0.00,,,0.00,318,weatherlink.com 1.10,2013-05-07 18:05:00,
2013-05-07 11:20:00,65.8,55.0,30.01,WNW,293,7.0,13.0,68,0.00,,,0.00,355,weatherlink.com 1.10,2013-05-07 18:20:00,
2013-05-07 11:35:00,66.2,55.0,30.01,WNW,303,3.0,9.0,68,0.00,,,0.00,304,weatherlink.com 1.10,2013-05-07 18:35:00,
2013-05-07 11:50:00,69.1,56.0,30.00,NW,314,6.0,11.0,64,0.00,,,0.00,846,weatherlink.com 1.10,2013-05-07 18:50:00,
2013-05-07 12:05:00,69.8,56.0,30.00,NNW,330,6.0,13.0,61,0.00,,,0.00,877,weatherlink.com 1.10,2013-05-07 19:05:00,
2013-05-07 12:20:00,70.4,58.0,30.00,NW,320,4.0,11.0,64,0.00,,,0.00,714,weatherlink.com 1.10,2013-05-07 19:20:00,
2013-05-07 12:35:00,70.4,57.0,30.00,WNW,283,3.0,12.0,62,0.00,,,0.00,921,weatherlink.com 1.10,2013-05-07 19:35:00,
2013-05-07 12:50:00,71.7,57.0,30.00,WNW,284,4.0,9.0,61,0.00,,,0.00,842,weatherlink.com 1.10,2013-05-07 19:50:00,
2013-05-07 13:05:00,72.3,58.0,29.99,WNW,286,6.0,13.0,60,0.00,,,0.00,979,weatherlink.com 1.10,2013-05-07 20:05:00,
2013-05-07 13:20:00,72.0,59.0,29.99,West,272,4.0,13.0,63,0.00,,,0.00,875,weatherlink.com 1.10,2013-05-07 20:20:00,
2013-05-07 13:35:00,73.5,56.0,29.98,WNW,296,2.0,10.0,55,0.00,,,0.00,954,weatherlink.com 1.10,2013-05-07 20:35:00,
2013-05-07 13:50:00,73.9,59.0,29.98,WNW,294,7.0,9.0,59,0.00,,,0.00,896,weatherlink.com 1.10,2013-05-07 20:50:00,
2013-05-07 14:05:00,74.6,55.0,29.98,WNW,298,5.0,12.0,51,0.00,,,0.00,816,weatherlink.com 1.10,2013-05-07 21:05:00,
2013-05-07 14:20:00,74.3,55.0,29.98,WSW,250,5.0,10.0,52,0.00,,,0.00,636,weatherlink.com 1.10,2013-05-07 21:20:00,
2013-05-07 14:35:00,73.7,54.0,29.98,WNW,302,1.0,8.0,51,0.00,,,0.00,510,weatherlink.com 1.10,2013-05-07 21:35:00,
2013-05-07 14:50:00,73.0,55.0,29.98,West,263,4.0,10.0,54,0.00,,,0.00,408,weatherlink.com 1.10,2013-05-07 21:50:00,
2013-05-07 15:05:00,73.1,55.0,29.97,West,273,2.0,9.0,54,0.00,,,0.00,476,weatherlink.com 1.10,2013-05-07 22:05:00,
2013-05-07 15:20:00,74.0,55.0,29.97,WNW,286,9.0,12.0,52,0.00,,,0.00,858,weatherlink.com 1.10,2013-05-07 22:20:00,
2013-05-07 15:35:00,74.7,53.0,29.96,West,281,8.0,10.0,47,0.00,,,0.00,780,weatherlink.com 1.10,2013-05-07 22:35:00,
2013-05-07 15:50:00,75.7,58.0,29.96,WNW,283,5.0,9.0,54,0.00,,,0.00,775,weatherlink.com 1.10,2013-05-07 22:50:00,
2013-05-07 16:05:00,74.9,55.0,29.95,NNW,327,2.0,10.0,50,0.00,,,0.00,461,weatherlink.com 1.10,2013-05-07 23:05:00,
2013-05-07 16:20:00,74.6,54.0,29.95,WNW,295,2.0,9.0,49,0.00,,,0.00,554,weatherlink.com 1.10,2013-05-07 23:20:00,
2013-05-07 16:35:00,74.2,53.0,29.95,WNW,282,8.0,12.0,48,0.00,,,0.00,621,weatherlink.com 1.10,2013-05-07 23:35:00,
2013-05-07 16:50:00,74.4,52.0,29.95,West,269,3.0,13.0,45,0.00,,,0.00,257,weatherlink.com 1.10,2013-05-07 23:50:00,
2013-05-07 17:05:00,73.1,53.0,29.95,West,269,3.0,10.0,49,0.00,,,0.00,172,weatherlink.com 1.10,2013-05-08 00:05:00,
2013-05-07 17:20:00,71.9,51.0,29.95,NW,324,6.0,11.0,48,0.00,,,0.00,158,weatherlink.com 1.10,2013-05-08 00:20:00,
2013-05-07 17:35:00,71.6,51.0,29.95,West,260,1.0,10.0,48,0.00,,,0.00,111,weatherlink.com 1.10,2013-05-08 00:35:00,
2013-05-07 17:50:00,71.0,52.0,29.95,West,278,4.0,10.0,52,0.00,,,0.00,109,weatherlink.com 1.10,2013-05-08 00:50:00,
2013-05-07 18:05:00,70.8,53.0,29.95,WNW,290,7.0,8.0,53,0.00,,,0.00,83,weatherlink.com 1.10,2013-05-08 01:05:00,
2013-05-07 18:20:00,70.5,52.0,29.95,WNW,288,3.0,7.0,53,0.00,,,0.00,74,weatherlink.com 1.10,2013-05-08 01:20:00,
2013-05-07 18:35:00,70.3,53.0,29.95,WNW,290,7.0,8.0,54,0.00,,,0.00,98,weatherlink.com 1.10,2013-05-08 01:35:00,
2013-05-07 18:50:00,70.1,53.0,29.95,WNW,288,1.0,8.0,55,0.00,,,0.00,67,weatherlink.com 1.10,2013-05-08 01:50:00,
2013-05-07 19:05:00,69.5,52.0,29.95,West,281,0.0,8.0,55,0.00,,,0.00,23,weatherlink.com 1.10,2013-05-08 02:05:00,
2013-05-07 19:20:00,69.0,52.0,29.96,WNW,296,4.0,13.0,54,0.00,,,0.00,18,weatherlink.com 1.10,2013-05-08 02:20:00,
2013-05-07 19:35:00,68.5,52.0,29.96,NW,324,3.0,9.0,56,0.00,,,0.00,18,weatherlink.com 1.10,2013-05-08 02:35:00,
2013-05-07 19:50:00,67.8,51.0,29.97,WNW,290,4.0,11.0,56,0.00,,,0.00,9,weatherlink.com 1.10,2013-05-08 02:50:00,
2013-05-07 20:05:00,67.0,51.0,29.97,West,278,10.0,14.0,57,0.00,,,0.00,0,weatherlink.com 1.10,2013-05-08 03:05:00,
2013-05-07 20:20:00,66.4,52.0,29.97,West,279,3.0,9.0,60,0.00,,,0.00,0,weatherlink.com 1.10,2013-05-08 03:20:00,
2013-05-07 20:35:00,65.8,51.0,29.97,WNW,283,4.0,11.0,59,0.00,,,0.00,0,weatherlink.com 1.10,2013-05-08 03:35:00,
2013-05-07 20:50:00,65.4,51.0,29.98,NW,311,6.0,11.0,59,0.00,,,0.00,0,weatherlink.com 1.10,2013-05-08 03:50:00,
2013-05-07 21:05:00,65.0,50.0,29.98,NW,313,7.0,11.0,59,0.00,,,0.00,0,weatherlink.com 1.10,2013-05-08 04:05:00,
2013-05-07 21:20:00,64.4,49.0,29.98,West,270,7.0,11.0,58,0.00,,,0.00,0,weatherlink.com 1.10,2013-05-08 04:20:00,
2013-05-07 21:35:00,63.7,48.0,29.98,West,278,7.0,9.0,57,0.00,,,0.00,0,weatherlink.com 1.10,2013-05-08 04:35:00,
2013-05-07 21:50:00,63.4,48.0,29.98,WNW,293,1.0,9.0,58,0.00,,,0.00,0,weatherlink.com 1.10,2013-05-08 04:50:00,
2013-05-07 22:05:00,63.1,48.0,29.98,West,273,6.0,10.0,59,0.00,,,0.00,0,weatherlink.com 1.10,2013-05-08 05:05:00,
2013-05-07 22:20:00,62.5,49.0,29.98,NW,306,9.0,10.0,61,0.00,,,0.00,0,weatherlink.com 1.10,2013-05-08 05:20:00,
2013-05-07 22:35:00,61.8,50.0,29.99,WNW,294,7.0,9.0,65,0.00,,,0.00,0,weatherlink.com 1.10,2013-05-08 05:35:00,
2013-05-07 22:50:00,61.3,51.0,29.99,West,265,8.0,10.0,69,0.00,,,0.00,0,weatherlink.com 1.10,2013-05-08 05:50:00,
2013-05-07 23:05:00,60.7,51.0,30.00,West,277,4.0,10.0,71,0.00,,,0.00,0,weatherlink.com 1.10,2013-05-08 06:05:00,
2013-05-07 23:20:00,60.2,51.0,30.00,NW,321,4.0,7.0,72,0.00,,,0.00,0,weatherlink.com 1.10,2013-05-08 06:20:00,
2013-05-07 23:35:00,59.7,51.0,29.99,WNW,289,4.0,8.0,72,0.00,,,0.00,0,weatherlink.com 1.10,2013-05-08 06:35:00,
2013-05-07 23:50:00,59.6,51.0,29.99,West,267,1.0,9.0,73,0.00,,,0.00,0,weatherlink.com 1.10,2013-05-08 06:50:00,